Location: Wien
(48.2082°N, 16.3738°E)
Time: 09:52:08
(UTC+02:00)

Transit 4A - Pass Details

Date: 22 February 2024
Orbit: 871 x 971 km, 66.8° (Epoch: 24 April)

Event Time Altitude Azimuth Distance (km) Brightness Sun altitude
Exits shadow 04:34:47 21° 323° (NW) 1,939 9.3 -23.2°
Maximum altitude 04:35:21 21° 331° (NNW) 1,923 9.4 -23.1°
Drops below altitude 10° 04:39:49 10° 20° (NNE) 2,581 10.6 -22.4°
Sets 04:42:58 0° 36° (NE) 3,508 11.6 -21.9°
